Total_Precipitation_Accumulation
0.02 0.06 0.27 0.37 0.33 0.29 0.29 0.32 0.33 0.29 0.28 0.31 0.33 0.36 0.37 0.38 0.38 0.36 0.33 0.33 0.32 0.32 0.35 0.40 0.41 0.42 0.38 0.33 0.26 0.24 0.22 0.21 0.21 0.23 0.26 0.29 0.30 0.28 0.27 0.25 0.23 0.26 0.35
0.04 0.08 0.23 0.30 0.28 0.28 0.30 0.31 0.30 0.26 0.24 0.27 0.31 0.34 0.37 0.37 0.37 0.36 0.35 0.34 0.34 0.34 0.35 0.36 0.37 0.37 0.36 0.31 0.28 0.25 0.22 0.20 0.15 0.15 0.16 0.17 0.26 0.32 0.31 0.31 0.31 0.38 0.39
0.03 0.06 0.17 0.24 0.25 0.28 0.32 0.30 0.27 0.25 0.23 0.24 0.27 0.32 0.34 0.35 0.35 0.36 0.35 0.32 0.33 0.35 0.36 0.35 0.35 0.38 0.34 0.31 0.30 0.25 0.24 0.19 0.12 0.09 0.10 0.14 0.27 0.36 0.34 0.33 0.34 0.40 0.41
0.02 0.05 0.11 0.20 0.25 0.29 0.32 0.32 0.30 0.27 0.26 0.26 0.29 0.32 0.33 0.33 0.32 0.32 0.33 0.33 0.38 0.39 0.41 0.39 0.37 0.39 0.34 0.29 0.28 0.26 0.25 0.20 0.12 0.07 0.04 0.11 0.30 0.43 0.42 0.41 0.40 0.43 0.44
0.01 0.03 0.10 0.19 0.26 0.32 0.34 0.35 0.34 0.33 0.33 0.34 0.33 0.35 0.36 0.36 0.32 0.31 0.28 0.31 0.40 0.41 0.42 0.43 0.42 0.41 0.37 0.33 0.30 0.29 0.29 0.24 0.14 0.06 0.02 0.06 0.25 0.51 0.48 0.45 0.42 0.42 0.41
0.01 0.03 0.10 0.20 0.29 0.34 0.37 0.40 0.37 0.38 0.39 0.39 0.38 0.40 0.41 0.41 0.37 0.35 0.33 0.33 0.34 0.37 0.40 0.42 0.44 0.46 0.45 0.38 0.36 0.38 0.39 0.34 0.14 0.03 0.03 0.06 0.22 0.51 0.49 0.43 0.40 0.38 0.38
0.02 0.05 0.12 0.23 0.32 0.36 0.39 0.43 0.42 0.43 0.45 0.43 0.43 0.45 0.46 0.45 0.44 0.43 0.40 0.36 0.32 0.31 0.33 0.37 0.38 0.41 0.44 0.40 0.40 0.43 0.48 0.36 0.12 0.08 0.06 0.07 0.21 0.59 0.70 0.55 0.43 0.37 0.37
0.02 0.06 0.14 0.27 0.36 0.40 0.44 0.49 0.48 0.49 0.54 0.54 0.53 0.51 0.50 0.48 0.47 0.47 0.43 0.39 0.36 0.34 0.34 0.35 0.36 0.40 0.43 0.43 0.42 0.44 0.46 0.28 0.11 0.11 0.12 0.13 0.30 0.72 0.83 0.81 0.63 0.45 0.39
0.04 0.07 0.14 0.26 0.36 0.44 0.50 0.52 0.52 0.52 0.56 0.57 0.58 0.57 0.54 0.54 0.55 0.56 0.52 0.47 0.44 0.41 0.40 0.37 0.35 0.33 0.35 0.42 0.42 0.37 0.33 0.23 0.11 0.17 0.16 0.24 0.33 0.73 0.85 0.93 0.82 0.62 0.48
0.08 0.11 0.17 0.27 0.36 0.42 0.48 0.54 0.54 0.52 0.57 0.60 0.60 0.60 0.59 0.59 0.61 0.62 0.57 0.51 0.47 0.45 0.41 0.37 0.34 0.30 0.27 0.27 0.27 0.25 0.19 0.15 0.11 0.17 0.30 0.30 0.34 0.76 0.91 0.96 0.87 0.75 0.62
0.12 0.15 0.21 0.33 0.41 0.45 0.48 0.49 0.56 0.60 0.64 0.64 0.63 0.60 0.59 0.55 0.52 0.49 0.47 0.49 0.49 0.46 0.41 0.36 0.34 0.31 0.26 0.21 0.18 0.16 0.10 0.06 0.08 0.19 0.25 0.28 0.46 0.86 0.98 0.96 0.90 0.81 0.74
0.13 0.16 0.23 0.33 0.42 0.49 0.50 0.53 0.62 0.62 0.63 0.63 0.60 0.60 0.57 0.53 0.50 0.46 0.42 0.43 0.46 0.47 0.45 0.42 0.38 0.32 0.26 0.20 0.21 0.20 0.09 0.04 0.04 0.07 0.09 0.17 0.48 0.91 1.04 0.97 0.96 0.92 0.88
0.15 0.20 0.25 0.34 0.43 0.52 0.54 0.54 0.57 0.58 0.60 0.63 0.66 0.65 0.65 0.63 0.60 0.59 0.54 0.53 0.48 0.44 0.44 0.43 0.41 0.36 0.33 0.29 0.29 0.25 0.15 0.09 0.06 0.04 0.05 0.12 0.28 0.53 0.80 0.92 0.98 1.00 1.00
0.20 0.24 0.30 0.38 0.46 0.52 0.57 0.60 0.58 0.57 0.56 0.58 0.63 0.66 0.66 0.65 0.63 0.62 0.59 0.54 0.50 0.47 0.46 0.44 0.41 0.35 0.31 0.27 0.26 0.22 0.19 0.15 0.11 0.09 0.06 0.09 0.16 0.24 0.41 0.62 0.78 0.90 1.00
0.22 0.27 0.33 0.43 0.49 0.53 0.60 0.64 0.66 0.62 0.57 0.53 0.56 0.60 0.61 0.61 0.61 0.58 0.53 0.48 0.46 0.45 0.42 0.36 0.31 0.27 0.24 0.24 0.23 0.20 0.20 0.19 0.19 0.16 0.13 0.12 0.12 0.15 0.23 0.37 0.56 0.75 0.91
0.20 0.26 0.33 0.43 0.52 0.58 0.60 0.62 0.63 0.66 0.62 0.59 0.55 0.52 0.55 0.56 0.56 0.57 0.56 0.54 0.49 0.43 0.40 0.37 0.32 0.27 0.22 0.19 0.17 0.17 0.17 0.16 0.17 0.18 0.16 0.17 0.16 0.16 0.20 0.26 0.38 0.62 0.84
0.21 0.28 0.38 0.46 0.58 0.66 0.66 0.66 0.66 0.66 0.67 0.64 0.62 0.59 0.55 0.53 0.51 0.54 0.57 0.54 0.51 0.47 0.42 0.38 0.36 0.33 0.28 0.21 0.17 0.14 0.13 0.13 0.13 0.14 0.15 0.19 0.21 0.20 0.20 0.23 0.27 0.42 0.68
0.25 0.31 0.41 0.50 0.60 0.69 0.73 0.74 0.71 0.69 0.69 0.69 0.65 0.66 0.63 0.57 0.54 0.55 0.57 0.56 0.52 0.49 0.46 0.42 0.39 0.36 0.32 0.27 0.21 0.17 0.14 0.13 0.11 0.10 0.10 0.14 0.21 0.24 0.23 0.23 0.25 0.30 0.49
0.23 0.30 0.42 0.53 0.56 0.63 0.75 0.80 0.79 0.77 0.76 0.75 0.73 0.69 0.66 0.62 0.57 0.55 0.56 0.56 0.58 0.57 0.53 0.49 0.44 0.39 0.35 0.31 0.28 0.23 0.17 0.14 0.12 0.11 0.09 0.09 0.13 0.20 0.26 0.27 0.27 0.25 0.32
0.23 0.30 0.39 0.54 0.58 0.63 0.74 0.90 0.91 0.88 0.86 0.83 0.79 0.72 0.68 0.66 0.60 0.54 0.54 0.54 0.56 0.57 0.54 0.51 0.46 0.39 0.35 0.33 0.32 0.29 0.22 0.17 0.14 0.11 0.10 0.10 0.10 0.13 0.21 0.28 0.29 0.23 0.22
0.24 0.29 0.38 0.54 0.60 0.68 0.76 0.84 0.90 0.83 0.84 0.83 0.80 0.77 0.71 0.70 0.68 0.62 0.56 0.54 0.54 0.53 0.50 0.46 0.46 0.44 0.41 0.40 0.42 0.40 0.34 0.26 0.20 0.15 0.11 0.09 0.09 0.10 0.13 0.23 0.31 0.28 0.23
0.23 0.25 0.31 0.47 0.58 0.64 0.68 0.70 0.74 0.76 0.78 0.81 0.78 0.81 0.80 0.76 0.76 0.70 0.60 0.58 0.57 0.55 0.52 0.47 0.45 0.48 0.46 0.44 0.46 0.50 0.44 0.37 0.29 0.19 0.15 0.11 0.09 0.09 0.12 0.17 0.26 0.30 0.29
0.21 0.22 0.27 0.39 0.53 0.61 0.67 0.80 0.84 0.90 0.97 0.96 0.90 0.82 0.80 0.81 0.80 0.79 0.70 0.61 0.60 0.59 0.57 0.51 0.45 0.45 0.47 0.44 0.43 0.59 0.62 0.42 0.26 0.18 0.15 0.12 0.10 0.10 0.10 0.13 0.20 0.26 0.32
0.17 0.20 0.25 0.39 0.52 0.60 0.68 0.78 0.84 0.83 0.87 0.88 0.82 0.79 0.74 0.75 0.79 0.77 0.77 0.71 0.65 0.62 0.57 0.54 0.50 0.46 0.49 0.51 0.47 0.47 0.51 0.49 0.46 0.29 0.16 0.13 0.12 0.11 0.10 0.11 0.14 0.20 0.26
0.17 0.22 0.26 0.36 0.53 0.64 0.71 0.73 0.77 0.76 0.72 0.76 0.86 0.86 0.83 0.79 0.79 0.79 0.76 0.76 0.73 0.67 0.61 0.58 0.58 0.56 0.55 0.57 0.54 0.48 0.43 0.38 0.38 0.46 0.28 0.17 0.16 0.14 0.12 0.12 0.13 0.17 0.21
0.19 0.26 0.32 0.36 0.47 0.63 0.75 0.77 0.74 0.73 0.72 0.76 0.85 0.91 0.93 0.89 0.83 0.78 0.76 0.74 0.73 0.69 0.62 0.58 0.59 0.61 0.61 0.58 0.55 0.51 0.52 0.51 0.42 0.45 0.39 0.23 0.19 0.17 0.16 0.16 0.15 0.17 0.20